User: anonymous   Login
Location: �bnet
(46.9957°N, 8.4908°E)
Time: 05:23:03
(UTC+00:00)
Language:

Cosmos 1933 - Orbit

View from above orbital plane
View from above orbital plane
View from above satellite
View from above satellite

Ground track
Ground track

The orbit data is extracted from the following two-line orbital elements,

1 18958U 88020A   21210.41058112  .00000690  00000-0  47915-4 0  9992
2 18958  82.5288  92.5601 0010628 199.4008 160.6815 15.03961485796244
Epoch (UTC): 29 July 2021 09:51:14
Eccentricity: 0.0010628
inclination: 82.5288°
perigee height: 547 km
apogee height: 562 km
right ascension of ascending node: 92.5601°
argument of perigee: 199.4008°
revolutions per day: 15.03961485
mean anomaly at epoch: 160.6815°
orbit number at epoch: 79624

The dashed part of the orbit path shows where the satellite is in the earth's shadow,  

DLR